Voltar ao catálogo

ARIANE 5 DEB

AtivoHEO
NORAD 43382·DEBRIS·🇫🇷 France

Lançado Jun 12, 2008 de Guiana Space Centre

Loading…

Próximas Passagens (próximas 24 horas)

TLE

AtualizadoSource: Space-Track

Época: Sep 14, 2026, 04:53 UTC

1 43382U 08030E   26257.20414889  .00001232  00000-0  71350-3 0  9996
2 43382   2.0317 325.0289 7037795 348.9505   1.5339  2.56638459115675

Acompanhe ARIANE 5 DEB em tempo real com AllMySat

Download on the App Store